Погода в Кузьминичах

Россия / Калужская область     54°14′19″N   33°43′02″E
темп.,
°C
ветер,
м/с
пор.,
м/с
влажн.,
%
обл.,
%
осадки,
мм/ч
давл.,
гПа
погр.,
м
4 августа, ср
ср400:00+13зюз227831 0.0 101423
03:00+12з22855 0.0 101530
06:00+12з22875 0.0 101652
09:00+18зюз23625 0.0 1016537
12:00+22зюз454743 0.1 10161860
15:00+21зюз455080 0.1 10161224
18:00+21з2353100 0.0 1016723
21:00+16з2376100 0.2 101765
5 августа, чт
чт500:00+16вюв11746 0.0 101711
03:00+15ююв2376100 0.0 101752
06:00+15ю2875100 0.0 1016244
09:00+14ююв41193100 0.9 1016423
12:00+18ююв5107864 0.7 1015625
15:00+18ю5776100 1.6 1014715
18:00+21юв1372100 0.6 1012420
21:00+16ююз3697100 4.4 1012165
6 августа, пт
пт600:00+16вюв2297100 1.4 101151
03:00+16всв2499100 2.3 1010144
06:00+16вюв1399100 0.3 1009113
09:00+16вюв369895 1.4 1008201
12:00+19юв3891100 0.4 1008484
15:00+25ю5858100 0.4 10071214
18:00+23вюв3870100 0.1 1006281
21:00+18всв2398100 7.2 100763
7 августа, сб
сб700:00+18вюв489713 0.3 1008179
03:00+17вюв3796100 0.4 1007139
06:00+17ю2595100 0.0 1008102
09:00+21ююв2283100 0.0 1008234
12:00+26ююв235783 0.0 10071035
15:00+27ю3558100 0.1 10071586
18:00+23з3588100 2.8 1008213
21:00+19зсз2797100 4.5 1009254
8 августа, вс
вс800:00+16з379773 1.7 1011255
03:00+13зсз279796 1.7 1012173
06:00+12з2597100 0.0 1013145
09:00+16з348317 0.0 1014491
12:00+21з336015 0.0 10141098
15:00+22з436158 0.0 10151229
18:00+21зсз246599 0.0 10151205
21:00+17ссз22804 0.0 101626